Location: Freistadt
(48.5112°N, 14.5013°E)
Time: 09:05:23
(UTC+02:00)

PCSat - Pass Details

Date: 01 April 2023
Orbit: 783 x 794 km, 67.1° (Epoch: 29 May)

Event Time Altitude Azimuth Distance (km) Brightness Sun altitude
Rises 23:23:29 0° 327° (NNW) 3,301 13.9 -32.3°
Reaches altitude 10° 23:26:09 10° 337° (NNW) 2,369 12.9 -32.5°
Enters shadow 23:30:15 32° 24° (NNE) 1,348 11.0 -32.8°
